FALCON 9 R/B (45921 NORAD) Tracking and Keplerian Element Data

This shows tracking and keplerian element data for the satellite.

Feedback or suggestion? Click here.




ElementValue
Catalog45921
NameFALCON 9 R/B
Epoch Orbit33
Epoch Day221.56418502
Epoch Year2020
RAAN89.3923
Inclination27.5948
Eccentricity0.7741673
Argument of Perigee186.4834
Mean Anonmoly148.304
Mean Motion1.73912024
Decay Rate4.77E-05
L11 45921U 20048B 20221.56418502 .00004770 00000-0 11005-2 0 9990
L22 45921 27.5948 89.3923 7741673 186.4834 148.3040 1.73912024 336

Live tracking and technical data element details for FALCON 9 R/B (NORAD 45921). FALCON 9 R/B can be tracked NOW for your location showing map with azimuth and elevation plus other details from your city location.

Track the satellite on the map from your city or location and see movement details for azimuth, elevation, latitude, longitude, range, height, and movement on the map or in text.







IsCatalogInMostPopularTable: catalog: 45921, numindb: 2
Update: records affected: 1



GetName: 45921 FALCON 9 R/B

Hit Count: updated at: Fri, 14 Aug 2020 05:38:18 GMT